LiveATC.Net - Listen to live air traffic control over the Internet!


ICAO: URSS  IATA: AER   Airport: Sochi International Airport
City: Sochi
Country: Russia   Continent: Europe
URSS METAR Weather: URSS 121430Z 27004MPS 9999 NSC 16/06 Q1012 R02/010070 R06/010070 NOSIG RMK R06/29004G08MPS QFE757
URSS Flight Activity (FlightAware)
URSS Webcam:  (Airport Webcams) 

URSS Gnd/Twr/App
Feed Status: UP   Listeners: 6
Listen in your browser - HTML5 player (in browser, HTML5)
Click here to listen with your own player (launches your MP3 player)
Archive Access: URSS Gnd/Twr/App
FacilityFrequency
Sochi Approach118.300
Sochi Approach119.700
Sochi District (Small Aircraft)118.500
Sochi Start121.200
Sochi Taxi119.000
Sochi Tower124.600

NOTICE

Unauthorized use prohibited. See LiveATC.net Terms of Service


Airport/ARTCC Code
Frequency Search
(e.g., 124.400, 128.75)
Site-wide search
 


Browse Feeds
Top 50 Feeds
HF Oceanic Feeds
Coverage Map
Bad Weather Areas

LiveATC FAQ
Offer LiveATC feed
Contact LiveATC.net
Press Inquiries

LiveATC on iPhone
LiveATC on Android

Windows Phone
Windows 8/10

LiveATC Mobile
(Mobile browser)

ATC Audio Archives
Interesting Recordings

LiveATC Forums


Home Page
About LiveATC.net
Make a Donation
Terms of Use
Privacy Policy

Canadian Air Freqs

AIRMETs/SIGMETs

FAA Airport Status
NAS Status
Arrival Demand


Server Software By:
Icecast.org
Liquidsoap